PBO Station Position Time Series. Reference Frame : NAM14
Format Version,1.1.0
4-character ID,P443
Station name,La_Rush_LkWA2008
Begin Date, 2008-06-14
End Date, 2019-10-07
Release Date, 2019-10-08
Reference position, 48.5096476212 North Latitude, -121.2855570984 East Longitude, 1062.11955 meters elevation,
Date, North (mm), East (mm), Vertical (mm), North Std. Deviation (mm), East Std. Deviation (mm),              Vertical Std. Deviation (mm), Quality,
2008-06-14,0.00, 0.00, 0.00, 2.31, 1.55, 7.02, repro,
2008-06-15,-1.04, -0.93, -2.64, 2.33, 1.55, 7.05, repro,
2008-06-16,-1.63, -0.18, -1.73, 2.25, 1.51, 6.90, repro,
2008-06-17,-1.82, -2.29, -0.85, 2.26, 1.51, 6.90, repro,
2008-06-18,-1.36, -0.44, -6.43, 2.26, 1.51, 6.89, repro,
2008-06-19,-0.40, -0.24, -3.61, 2.33, 1.60, 7.35, repro,
2008-06-20,-1.04, 1.50, -6.82, 2.25, 1.51, 6.87, repro,
2008-06-21,-1.41, -1.48, -1.59, 2.26, 1.51, 6.97, repro,
2008-06-22,-0.30, -2.46, -4.24, 2.25, 1.51, 6.90, repro,
2008-06-23,-0.41, -0.49, 1.25, 2.26, 1.51, 6.86, repro,
2008-06-24,-0.22, 0.41, -0.53, 2.25, 1.49, 6.80, repro,
2008-06-25,-1.58, 0.10, 0.94, 2.25, 1.51, 6.84, repro,
2008-06-26,-0.40, -1.20, 3.63, 2.27, 1.56, 7.05, repro,
2008-06-27,0.49, -0.03, 0.54, 2.25, 1.51, 6.86, repro,
2008-06-28,0.77, -0.63, 3.18, 2.24, 1.51, 6.84, repro,
2008-06-29,1.36, -1.02, 3.02, 2.25, 1.50, 6.85, repro,
2008-06-30,0.52, -2.40, 1.39, 2.27, 1.51, 6.88, repro,
2008-07-01,-0.63, -2.06, -1.33, 2.26, 1.52, 6.89, repro,
2008-07-02,0.54, -0.48, 1.49, 2.25, 1.52, 6.90, repro,
2008-07-03,-1.42, -0.34, 6.67, 2.29, 1.54, 7.03, repro,
2008-07-04,0.54, -2.49, 6.82, 2.25, 1.50, 6.87, repro,
2008-07-05,0.34, -1.35, 3.80, 2.25, 1.50, 6.85, repro,
2008-07-06,0.36, -1.32, 9.91, 2.26, 1.51, 6.86, repro,
2008-07-07,0.56, -0.18, 6.17, 2.25, 1.51, 6.85, repro,
2008-07-08,0.75, -0.74, 1.69, 2.26, 1.51, 6.85, repro,
2008-07-09,0.19, -0.92, 14.76, 2.24, 1.50, 6.80, repro,
2008-07-10,0.22, -0.11, 5.57, 2.32, 1.55, 7.00, repro,
2008-07-11,1.44, -0.82, 3.03, 2.34, 1.56, 7.08, repro,
2008-07-12,2.41, -2.01, 8.53, 2.24, 1.50, 6.82, repro,
2008-07-13,1.34, -1.96, 8.96, 2.29, 1.56, 7.10, repro,
2008-07-14,1.17, -2.10, 12.30, 2.24, 1.50, 6.81, repro,
2008-07-15,0.69, -2.07, 10.72, 2.24, 1.50, 6.82, repro,
2008-07-16,2.25, -1.65, 2.09, 2.25, 1.50, 6.82, repro,
2008-07-17,2.45, -1.08, 0.30, 2.26, 1.51, 6.86, repro,
2008-07-18,2.27, -1.98, 8.74, 2.38, 1.57, 7.13, repro,
2008-07-19,1.62, -0.71, 13.32, 2.33, 1.52, 6.99, repro,
2008-07-20,1.39, -0.69, 13.71, 2.24, 1.50, 6.82, repro,
2008-07-21,1.11, -2.42, 13.96, 2.26, 1.51, 6.87, repro,
2008-07-22,0.28, -1.15, 7.35, 2.25, 1.50, 6.85, repro,
2008-07-23,1.46, -0.80, 11.99, 2.31, 1.52, 6.90, repro,
2008-07-24,1.69, -1.08, 12.51, 2.25, 1.50, 6.84, repro,
2008-07-25,0.11, -1.69, 15.83, 2.24, 1.50, 6.81, repro,
2008-07-26,-0.97, -2.42, 15.63, 2.27, 1.50, 6.86, repro,
2008-07-27,2.12, -2.32, 8.16, 2.26, 1.49, 6.85, repro,
2008-07-28,0.49, -2.41, 11.20, 2.35, 1.55, 7.02, repro,
2008-07-29,1.42, -1.38, 19.28, 2.32, 1.53, 7.02, repro,
2008-07-30,-1.26, -2.39, 23.46, 2.31, 1.53, 7.07, repro,
2008-07-31,0.40, -1.38, 17.94, 2.25, 1.50, 6.84, repro,
2008-08-01,-0.97, -1.84, 21.08, 2.26, 1.50, 6.85, repro,
2008-08-02,0.69, -1.92, 14.07, 2.23, 1.49, 6.78, repro,
2008-08-03,1.42, -2.33, 15.09, 2.28, 1.54, 6.99, repro,
2008-08-04,1.35, -2.36, 12.17, 2.24, 1.50, 6.83, repro,
2008-08-05,0.89, -0.25, 14.79, 2.25, 1.50, 6.83, repro,
2008-08-06,0.59, -1.61, 13.15, 2.29, 1.50, 6.81, repro,
2008-08-07,1.15, -0.70, 22.33, 2.35, 1.55, 7.08, repro,
2008-08-08,2.08, -1.46, 18.04, 2.34, 1.56, 7.09, repro,
2008-08-09,1.63, -3.89, 15.47, 2.30, 1.53, 6.93, repro,
2008-08-10,0.77, -4.25, 9.58, 2.31, 1.53, 6.94, repro,
2008-08-11,0.12, -1.62, 9.91, 2.30, 1.51, 6.89, repro,
2008-08-12,1.38, -3.02, 12.60, 2.31, 1.51, 6.91, repro,
2008-08-13,0.26, -2.49, 16.10, 2.30, 1.52, 6.95, repro,
2008-08-14,0.33, -2.07, 16.26, 2.30, 1.53, 6.91, repro,
2008-08-15,0.81, -2.10, 19.20, 2.30, 1.52, 6.92, repro,
2008-08-16,-0.64, -1.31, 18.77, 2.30, 1.51, 6.86, repro,
2008-08-17,-0.43, -2.62, 19.67, 2.31, 1.52, 6.93, repro,
2008-08-18,1.10, -2.19, 19.99, 2.33, 1.52, 6.94, repro,
2008-08-19,1.32, -2.32, 18.65, 2.32, 1.53, 6.93, repro,
2008-08-20,-0.61, -5.01, 27.33, 2.33, 1.53, 6.94, repro,
2008-08-21,-3.22, -4.24, 21.77, 2.33, 1.52, 6.92, repro,
2008-08-22,-0.49, -2.81, 14.93, 2.30, 1.50, 6.84, repro,
2008-08-23,1.31, -2.05, 14.08, 2.31, 1.51, 6.85, repro,
2008-08-24,0.83, -2.80, 14.24, 2.33, 1.54, 7.03, repro,
2008-08-25,0.34, -5.16, 14.08, 2.32, 1.52, 6.92, repro,
2008-08-26,1.38, -2.96, 18.32, 2.32, 1.52, 6.92, repro,
2008-08-27,-0.63, -2.48, 19.43, 2.32, 1.53, 6.94, repro,
2008-08-28,-0.66, -2.31, 20.79, 2.42, 1.57, 7.12, repro,
2008-08-29,-3.73, -4.03, 20.46, 2.33, 1.54, 6.97, repro,
2008-08-30,-0.91, -1.26, 21.59, 2.34, 1.54, 7.00, repro,
2008-08-31,0.54, -2.45, 15.14, 2.34, 1.54, 7.00, repro,
2008-09-01,1.46, -2.26, 7.90, 2.33, 1.54, 6.97, repro,
2008-09-02,1.43, -2.00, 11.34, 2.33, 1.53, 6.96, repro,
2008-09-03,1.94, -2.27, 8.69, 2.31, 1.53, 6.91, repro,
2008-09-04,1.38, -1.08, 14.16, 2.46, 1.64, 7.45, repro,
2008-09-05,1.76, -2.12, 11.38, 2.41, 1.59, 7.17, repro,
2008-09-06,2.05, -2.60, 13.68, 2.36, 1.55, 7.09, repro,
2008-09-07,0.36, -1.67, 9.09, 2.33, 1.52, 7.00, repro,
2008-09-08,1.65, -1.77, 10.12, 2.32, 1.53, 6.96, repro,
2008-09-09,0.20, -1.98, 14.31, 2.38, 1.54, 7.02, repro,
2008-09-10,2.12, -1.10, 19.16, 2.34, 1.57, 7.03, repro,
2008-09-11,1.49, -1.90, 14.98, 2.46, 1.64, 7.37, repro,
2008-09-12,1.92, -2.15, 20.25, 2.35, 1.55, 7.06, repro,
2008-09-13,1.84, -1.42, 13.02, 2.32, 1.53, 6.97, repro,
2008-09-14,1.29, -1.45, 17.57, 2.33, 1.53, 6.95, repro,
2008-09-15,1.61, -0.08, 17.31, 2.31, 1.53, 6.92, repro,
2008-09-16,2.08, -1.13, 16.59, 2.33, 1.57, 7.10, repro,
2008-09-17,3.21, -0.47, 15.63, 2.43, 1.58, 7.25, repro,
2008-09-18,1.96, -1.24, 12.20, 2.30, 1.50, 6.87, repro,
2008-09-19,2.76, -2.00, 15.64, 2.41, 1.60, 7.18, repro,
2008-09-20,1.94, -2.07, 19.32, 2.31, 1.52, 6.89, repro,
2008-09-21,0.97, -1.91, 13.93, 2.29, 1.51, 6.85, repro,
2008-09-22,0.27, -1.42, 21.95, 2.32, 1.52, 6.95, repro,
2008-09-23,2.48, -2.44, 15.07, 2.30, 1.51, 6.87, repro,
2008-09-24,1.57, -0.91, 17.21, 2.35, 1.56, 6.99, repro,
2008-09-25,-0.70, -2.55, 18.99, 2.33, 1.54, 6.96, repro,
2008-09-26,0.79, -1.58, 13.44, 2.32, 1.51, 6.87, repro,
2008-09-27,0.40, -1.72, 7.14, 2.36, 1.55, 7.00, repro,
2008-09-28,2.68, -0.61, 11.82, 2.32, 1.52, 6.91, repro,
2008-09-29,2.19, -0.87, 10.21, 2.35, 1.56, 6.96, repro,
2008-09-30,1.56, -0.44, 12.72, 2.32, 1.51, 6.86, repro,
2008-10-01,2.25, -0.77, 11.86, 2.31, 1.52, 6.87, repro,
2008-10-02,1.56, -0.76, 18.34, 2.38, 1.55, 7.01, repro,
2008-10-03,0.88, -1.72, 21.96, 2.37, 1.55, 7.01, repro,
2008-10-04,0.18, -0.99, 21.04, 2.30, 1.51, 6.85, repro,
2008-10-05,2.10, -2.26, 17.92, 2.30, 1.51, 6.82, repro,
2008-10-06,1.73, -1.72, 13.05, 2.31, 1.51, 6.87, repro,
2008-10-07,-2.77, -0.75, 14.44, 2.37, 1.52, 6.96, repro,
2008-10-08,-0.34, -1.39, 9.81, 2.36, 1.54, 7.02, repro,
2008-10-09,2.86, -1.97, 8.77, 2.25, 1.49, 6.77, repro,
2008-10-10,2.64, -1.02, 10.64, 2.24, 1.49, 6.76, repro,
2008-10-11,1.20, -0.55, 8.44, 2.26, 1.49, 6.79, repro,
2008-10-12,3.04, -0.76, 5.33, 2.26, 1.50, 6.82, repro,
2008-10-13,1.39, -0.81, 16.18, 2.28, 1.50, 6.87, repro,
2008-10-14,0.23, -1.04, 8.45, 2.26, 1.50, 6.81, repro,
2008-10-15,3.01, -1.35, 8.12, 2.31, 1.52, 6.95, repro,
2008-10-16,2.02, -1.71, 12.08, 2.32, 1.52, 6.98, repro,
2008-10-17,0.92, -1.36, 13.75, 2.26, 1.50, 6.83, repro,
2008-10-18,0.45, -1.76, 8.49, 2.27, 1.51, 6.90, repro,
2008-10-19,1.65, -1.45, 7.80, 2.26, 1.51, 6.86, repro,
2008-10-20,-0.00, -0.90, 15.56, 2.26, 1.50, 6.86, repro,
2008-10-21,-4.17, -0.53, 1.25, 2.26, 1.51, 6.86, repro,
2008-10-22,1.11, -0.26, 9.17, 2.27, 1.50, 6.86, repro,
2008-10-23,0.14, -1.96, 15.72, 2.25, 1.51, 6.89, repro,
2008-10-24,1.35, -1.63, 10.71, 2.25, 1.50, 6.83, repro,
2008-10-25,0.73, -2.99, 15.09, 2.26, 1.50, 6.83, repro,
2008-10-26,1.51, -1.18, 4.49, 2.24, 1.50, 6.80, repro,
2008-10-27,2.17, -0.58, 6.73, 2.25, 1.50, 6.83, repro,
2008-10-28,2.44, -1.43, 6.90, 2.36, 1.52, 6.93, repro,
2008-10-29,2.11, -1.07, 12.27, 2.33, 1.52, 6.87, repro,
2008-10-30,0.22, -2.00, 15.24, 2.25, 1.49, 6.79, repro,
2008-10-31,0.34, -1.66, 10.69, 2.35, 1.61, 7.28, repro,
2008-11-01,-0.80, -0.54, 10.81, 2.27, 1.51, 6.87, repro,
2008-11-02,-0.94, -2.67, 20.77, 2.31, 1.55, 7.10, repro,
2008-11-03,0.23, -1.78, 15.75, 2.27, 1.53, 6.94, repro,
2008-11-04,-0.72, -2.22, 16.27, 2.27, 1.52, 6.95, repro,
2008-11-05,0.89, -2.18, 13.05, 2.31, 1.56, 7.14, repro,
2008-11-06,2.13, -0.99, 4.88, 2.31, 1.56, 7.12, repro,
2008-11-07,0.46, -0.92, 8.62, 2.31, 1.56, 7.12, repro,
2008-11-08,-0.42, -2.75, 15.18, 2.30, 1.56, 7.08, repro,
2008-11-09,0.16, -1.94, 14.62, 2.26, 1.53, 6.95, repro,
2008-11-10,1.27, -1.89, 20.56, 2.27, 1.55, 6.97, repro,
2008-11-11,-1.05, -3.01, 6.97, 2.34, 1.61, 7.35, repro,
2008-11-12,-0.65, -2.09, 17.33, 2.28, 1.51, 6.89, repro,
2008-11-13,-0.65, -0.20, 16.26, 2.34, 1.60, 7.21, repro,
2008-11-14,0.79, -1.81, 8.16, 2.35, 1.61, 7.28, repro,
2008-11-15,-0.09, 0.08, 6.78, 2.30, 1.56, 7.14, repro,
2008-11-16,0.51, -2.02, 3.01, 2.33, 1.60, 7.29, repro,
2008-11-17,-0.08, -1.46, 2.74, 2.34, 1.60, 7.22, repro,
2008-11-18,1.46, -3.71, 7.75, 2.39, 1.70, 7.76, repro,
2008-11-19,0.75, -1.16, 1.80, 2.35, 1.61, 7.31, repro,
2008-11-20,-0.21, -0.28, 3.01, 2.33, 1.60, 7.24, repro,
2008-11-21,-1.47, -0.00, 3.60, 2.44, 1.70, 7.74, repro,
2008-11-22,0.17, -1.62, 16.99, 2.53, 1.73, 7.89, repro,
2008-11-23,1.41, -0.63, 4.35, 2.42, 1.63, 7.40, repro,
2008-11-24,0.78, 0.03, 11.11, 2.42, 1.68, 7.58, repro,
2008-11-25,0.06, -1.25, 10.28, 2.33, 1.64, 7.31, repro,
2008-11-26,0.62, -1.11, 9.05, 2.26, 1.52, 6.83, repro,
2008-11-27,0.98, -0.39, 11.34, 2.29, 1.58, 7.13, repro,
2008-11-28,0.76, -1.48, 7.15, 2.35, 1.63, 7.30, repro,
2008-11-29,0.17, -0.73, 6.05, 2.44, 1.73, 7.77, repro,
2008-11-30,2.19, -1.46, 14.01, 2.26, 1.54, 6.93, repro,
2008-12-01,-0.71, -1.54, 10.43, 2.24, 1.51, 6.81, repro,
2008-12-02,2.89, -0.70, 12.52, 2.32, 1.58, 7.04, repro,
2008-12-03,2.47, -0.87, 8.63, 2.33, 1.58, 7.07, repro,
2008-12-04,1.24, 0.10, 6.65, 2.41, 1.73, 7.85, repro,
2008-12-05,0.78, -0.74, 9.90, 2.33, 1.61, 7.16, repro,
2008-12-06,2.45, -3.62, 15.46, 2.40, 1.72, 7.78, repro,
2008-12-07,-0.44, -2.34, 11.20, 2.34, 1.66, 7.57, repro,
2008-12-08,0.82, -0.47, 7.97, 2.28, 1.58, 7.12, repro,
2008-12-09,1.77, -1.10, 2.64, 2.31, 1.56, 7.01, repro,
2008-12-10,2.94, -0.97, 8.04, 2.31, 1.60, 7.26, repro,
2008-12-11,1.36, -1.89, 2.36, 2.41, 1.66, 7.45, repro,
2008-12-12,1.77, -1.04, 4.79, 2.45, 1.76, 7.93, repro,
2008-12-13,2.86, -2.07, 9.52, 2.28, 1.57, 7.10, repro,
2008-12-14,-0.09, -1.78, 2.95, 2.26, 1.50, 6.84, repro,
2008-12-15,-0.49, -0.49, 5.42, 2.29, 1.54, 7.02, repro,
2008-12-16,-0.98, -1.13, 6.42, 2.26, 1.52, 6.93, repro,
2008-12-17,-0.98, 0.49, 2.87, 2.32, 1.54, 7.03, repro,
2008-12-18,-2.13, -1.77, -23.68, 2.23, 1.49, 6.78, repro,
2008-12-19,-2.71, -2.03, -32.42, 2.31, 1.52, 7.01, repro,
2008-12-20,-3.44, -0.31, -21.23, 2.29, 1.55, 7.04, repro,
2008-12-21,0.16, -0.36, 3.24, 2.25, 1.50, 6.88, repro,
2008-12-22,1.53, -0.28, 8.12, 2.24, 1.50, 6.88, repro,
2008-12-23,1.74, -0.89, 13.38, 2.25, 1.50, 6.86, repro,
2008-12-24,-1.28, -1.59, 11.58, 2.24, 1.50, 6.84, repro,
2008-12-25,-1.80, -1.02, 11.57, 2.26, 1.50, 6.87, repro,
2008-12-26,-0.31, -2.48, 12.43, 2.26, 1.50, 6.87, repro,
2008-12-27,-2.16, -2.09, 6.53, 2.25, 1.51, 6.91, repro,
2008-12-28,-2.88, -1.18, 3.82, 2.25, 1.51, 6.88, repro,
2008-12-29,-9.13, -3.46, -3.92, 2.25, 1.50, 6.84, repro,
2008-12-30,-3.84, -3.41, 3.05, 2.25, 1.50, 6.87, repro,
2008-12-31,-2.98, 0.52, 2.86, 2.24, 1.50, 6.86, repro,
2009-01-01,-1.24, -0.74, 3.52, 2.25, 1.50, 6.86, repro,
2009-01-02,0.71, -0.60, 3.74, 2.23, 1.51, 6.87, repro,
2009-01-03,1.74, -0.89, 0.95, 2.24, 1.50, 6.86, repro,
2009-01-04,-1.51, -1.01, 0.02, 2.25, 1.50, 6.88, repro,
2009-01-05,-3.30, -1.90, 1.52, 2.26, 1.51, 6.92, repro,
2009-01-06,-1.02, -1.22, 6.49, 2.26, 1.52, 6.93, repro,
2009-01-07,-31.10, -14.21, 15.90, 2.33, 1.58, 7.24, repro,
2009-01-08,-41.30, -23.49, 80.79, 2.35, 1.61, 7.37, repro,
2009-01-16,2.19, 0.90, -2.00, 4.27, 3.05, 13.53, repro,
2009-01-17,2.68, -0.68, -1.78, 2.24, 1.51, 6.87, repro,
2009-01-18,0.87, -0.15, -2.97, 2.25, 1.51, 6.91, repro,
2009-01-19,-1.20, 0.59, -6.61, 2.25, 1.52, 6.96, repro,
2009-01-20,-1.25, 0.76, -1.99, 2.25, 1.52, 6.97, repro,
2009-01-21,-1.32, 1.15, -2.41, 2.24, 1.51, 6.91, repro,
2009-01-22,0.19, 0.18, 2.88, 2.25, 1.51, 6.93, repro,
2009-01-23,-1.02, 1.11, -7.06, 2.25, 1.51, 6.92, repro,
2009-01-24,-1.50, 0.70, -4.41, 2.24, 1.52, 6.95, repro,
2009-01-25,-0.31, 0.25, -4.88, 2.24, 1.52, 6.98, repro,
2009-01-26,-1.16, 0.66, -3.07, 2.23, 1.51, 6.92, repro,
2009-01-27,-0.96, 1.08, -3.99, 2.23, 1.51, 6.87, repro,
2009-01-28,-0.59, 1.90, -20.84, 2.24, 1.52, 6.92, repro,
2009-01-29,-0.12, 1.06, -4.68, 2.24, 1.52, 6.96, repro,
2009-01-30,-2.07, -0.03, -1.55, 2.22, 1.51, 6.89, repro,
2009-01-31,-1.29, 1.76, -3.76, 2.22, 1.51, 6.87, repro,
2009-02-01,-0.79, 0.70, -3.18, 2.21, 1.51, 6.86, repro,
2009-02-02,-1.80, 0.89, -8.25, 2.22, 1.50, 6.86, repro,
2009-02-03,0.11, -0.05, -7.67, 2.25, 1.52, 6.96, repro,
2009-02-04,-0.90, 1.12, -6.88, 2.24, 1.52, 6.98, repro,
2009-02-05,-0.06, -0.43, -3.95, 2.26, 1.55, 7.01, repro,
2009-02-06,-0.04, 0.31, -4.71, 2.31, 1.59, 7.15, repro,
2009-02-07,-1.10, 1.04, -5.13, 2.27, 1.54, 6.99, repro,
2009-02-08,-0.56, 0.91, -3.14, 2.28, 1.55, 7.04, repro,
2009-02-09,-0.62, 0.26, 2.23, 2.28, 1.56, 7.06, repro,
2009-02-10,-1.24, -0.10, -2.87, 2.21, 1.51, 6.89, repro,
2009-02-11,0.99, -0.05, -6.15, 2.29, 1.59, 7.16, repro,
2009-02-12,-0.03, 0.25, -2.16, 2.26, 1.55, 7.02, repro,
2009-02-13,-2.91, 0.59, -2.88, 2.25, 1.55, 6.97, repro,
2009-02-14,-1.35, 0.42, -1.98, 2.24, 1.52, 6.92, repro,
2009-02-15,-1.76, 0.52, -2.04, 2.26, 1.54, 7.05, repro,
2009-02-16,-2.21, 0.38, 2.76, 2.23, 1.52, 6.94, repro,
2009-02-17,-0.38, 0.35, 2.79, 2.24, 1.53, 6.89, repro,
2009-02-18,-0.67, 0.12, -4.61, 2.25, 1.54, 7.02, repro,
2009-02-19,-1.01, 0.67, -7.45, 2.25, 1.55, 7.11, repro,
2009-02-20,-0.54, 0.18, -7.69, 2.26, 1.55, 7.10, repro,
2009-02-21,-1.74, 0.30, -3.24, 2.24, 1.56, 7.11, repro,
2009-02-22,-1.73, 0.98, 2.18, 2.21, 1.53, 6.93, repro,
2009-02-23,-1.86, -0.31, -1.36, 2.23, 1.54, 6.95, repro,
2009-02-24,-3.86, -1.19, 4.60, 2.37, 1.69, 7.48, repro,
2009-02-25,-4.66, -0.90, -9.42, 146.87, 204.11, 386.55, repro,
2009-02-26,1.02, 0.60, 1.09, 2.23, 1.55, 6.97, repro,
2009-02-27,-0.58, -0.06, -4.68, 2.43, 1.69, 7.78, repro,
2009-02-28,-1.45, 0.81, -9.59, 2.24, 1.56, 7.10, repro,
2009-03-01,-4.47, 1.15, -6.04, 2.23, 1.54, 7.00, repro,
2009-03-02,-3.46, -0.77, 5.19, 2.26, 1.55, 7.04, repro,
2009-03-03,-2.10, -0.19, 6.20, 2.28, 1.60, 7.22, repro,
2009-03-04,-1.53, -0.15, 7.60, 2.21, 1.52, 6.92, repro,
2009-03-05,-2.25, 0.96, 7.85, 2.25, 1.56, 7.12, repro,
2009-03-06,-1.07, 0.48, 4.71, 2.28, 1.61, 7.26, repro,
2009-03-07,-3.53, 0.50, 5.54, 2.21, 1.52, 6.89, repro,
2009-03-08,-0.59, 0.21, -2.37, 2.23, 1.54, 6.99, repro,
2009-03-09,0.29, 0.38, -0.87, 2.31, 1.61, 7.32, repro,
2009-03-10,-0.08, 0.00, 0.05, 2.31, 1.62, 7.32, repro,
2009-03-11,-0.59, 0.04, -1.77, 2.23, 1.53, 6.94, repro,
2009-03-12,-1.27, 0.66, -5.78, 2.23, 1.53, 6.97, repro,
2009-03-13,-1.46, 0.20, -3.65, 2.24, 1.56, 7.06, repro,
2009-03-14,-3.84, -0.75, 7.28, 2.20, 1.52, 6.90, repro,
2009-03-15,-5.24, -1.79, 12.44, 2.22, 1.53, 6.94, repro,
2009-03-16,-3.37, -0.88, -4.61, 2.24, 1.54, 6.99, repro,
2009-03-17,-2.72, -1.02, -5.91, 2.22, 1.53, 6.93, repro,
2009-03-18,-0.77, -0.17, -9.45, 2.22, 1.53, 6.92, repro,
2009-03-19,-0.65, -1.66, -14.15, 2.20, 1.51, 6.85, repro,
2009-03-20,-4.40, 1.63, -3.25, 2.22, 1.53, 6.93, repro,
2009-03-21,-2.11, 0.19, 3.53, 2.23, 1.53, 6.97, repro,
2009-03-22,-1.22, -0.38, 6.77, 2.23, 1.53, 6.93, repro,
2009-03-23,-0.89, -1.16, -3.46, 2.21, 1.52, 6.89, repro,
2009-03-24,-1.70, -0.58, -2.40, 2.22, 1.53, 6.91, repro,
2009-03-25,-2.03, 2.77, 1.47, 2.21, 1.53, 6.93, repro,
2009-03-26,-2.26, 0.67, 1.98, 2.19, 1.53, 6.87, repro,
2009-03-27,-3.94, -0.73, 6.55, 2.28, 1.54, 7.01, repro,
2009-03-28,-3.94, -1.77, 1.43, 2.27, 1.53, 6.96, repro,
2009-03-29,-0.49, -0.65, 2.60, 2.28, 1.55, 7.01, repro,
2009-03-30,-3.35, -0.25, 7.40, 2.26, 1.54, 6.96, repro,
2009-03-31,-2.19, -0.92, -11.55, 2.28, 1.55, 7.05, repro,
2009-04-01,-0.12, -0.16, -8.03, 2.26, 1.54, 6.98, repro,
2009-04-02,-4.51, -0.93, -6.73, 2.32, 1.57, 7.13, repro,
2009-04-03,-4.82, -1.46, 14.70, 2.33, 1.58, 7.22, repro,
2009-04-04,-2.36, -1.51, 3.02, 2.26, 1.54, 6.96, repro,
2009-04-05,-3.76, 0.74, -9.39, 2.28, 1.55, 7.01, repro,
2009-04-06,-1.45, 1.51, -7.28, 2.27, 1.54, 6.97, repro,
2009-04-07,-1.78, -0.42, 2.60, 2.27, 1.53, 6.97, repro,
2009-04-08,-1.39, -1.03, 3.18, 2.28, 1.53, 6.94, repro,
2009-04-09,-1.91, -1.27, -0.36, 2.27, 1.55, 7.01, repro,
2009-04-10,-1.31, 0.48, -5.31, 2.27, 1.53, 6.97, repro,
2009-04-11,-1.54, 0.32, -3.80, 2.32, 1.57, 7.12, repro,
2009-04-12,-0.72, -0.90, -11.76, 2.31, 1.56, 7.10, repro,
2009-04-13,-2.20, 1.90, -8.19, 2.27, 1.53, 6.97, repro,
2009-04-14,-3.05, -1.04, 1.75, 2.27, 1.54, 6.99, repro,
2009-04-15,0.04, -0.19, -6.74, 2.27, 1.55, 7.03, repro,
2009-04-16,0.50, -0.11, -10.87, 2.27, 1.53, 6.98, repro,
2009-04-17,-2.39, 0.30, -9.88, 2.28, 1.53, 7.00, repro,
2009-04-18,-2.52, -0.40, -4.82, 2.28, 1.53, 7.02, repro,
2009-04-19,-2.07, -0.85, -0.01, 2.28, 1.53, 7.01, repro,
2009-04-20,-1.35, -0.10, -7.44, 2.28, 1.54, 7.00, repro,
2009-04-21,-0.47, -0.08, -2.22, 2.27, 1.53, 7.00, repro,
2009-04-22,-1.41, 0.80, -3.04, 2.30, 1.54, 7.08, repro,
2009-04-23,-2.62, 0.12, 1.57, 2.34, 1.56, 7.16, repro,
2009-04-24,-1.00, -0.19, 1.06, 2.32, 1.57, 7.13, repro,
2009-04-25,-0.18, -1.89, -5.34, 2.27, 1.52, 6.94, repro,
2009-04-26,-1.09, -0.59, -6.06, 2.27, 1.53, 6.94, repro,
2009-04-27,-0.12, -0.44, -2.63, 2.28, 1.53, 6.96, repro,
2009-04-28,-0.37, 0.28, -0.59, 2.30, 1.54, 7.02, repro,
2009-04-29,-0.53, 0.32, 0.39, 2.35, 1.62, 7.28, repro,
2009-04-30,-0.12, 0.46, -3.90, 2.34, 1.60, 7.18, repro,
2009-05-01,-2.67, -1.03, -2.77, 2.27, 1.52, 6.93, repro,
2009-05-02,-1.77, -1.89, -6.78, 2.28, 1.52, 6.93, repro,
2009-05-03,-0.86, 0.34, -1.84, 2.26, 1.51, 6.87, repro,
2009-05-04,-2.14, 0.54, 6.36, 2.30, 1.54, 7.06, repro,
2009-05-05,-3.03, -0.92, 2.57, 2.29, 1.53, 6.99, repro,
2009-05-06,-2.44, -0.76, 5.35, 2.29, 1.52, 6.96, repro,
2009-05-07,-5.82, 0.92, -14.96, 2.27, 1.52, 6.93, repro,
2009-05-08,-0.55, 0.16, -3.26, 2.26, 1.51, 6.87, repro,
2009-05-09,-0.98, 0.42, -6.59, 2.26, 1.51, 6.87, repro,
2009-05-10,-2.04, 0.67, -5.25, 2.28, 1.52, 6.95, repro,
2009-05-11,-2.48, -0.08, 1.69, 2.28, 1.52, 6.98, repro,
2009-05-12,-2.26, 0.52, -0.78, 2.38, 1.60, 7.24, repro,
2009-05-13,-1.78, -0.13, 0.72, 2.33, 1.55, 7.09, repro,
2009-05-14,-1.06, -2.73, -1.88, 2.25, 1.51, 6.88, repro,
2009-05-15,-1.14, -0.01, -2.04, 2.26, 1.51, 6.90, repro,
2009-05-16,-0.90, -0.14, -1.79, 2.29, 1.53, 7.01, repro,
2009-05-17,-2.75, -1.41, -0.88, 2.29, 1.53, 7.00, repro,
2009-05-18,-1.22, -1.17, -1.05, 2.28, 1.53, 7.00, repro,
2009-05-19,-1.23, -1.43, -1.77, 2.29, 1.56, 7.10, repro,
2009-05-20,-2.39, -1.67, -6.71, 2.27, 1.52, 6.93, repro,
2009-05-21,-0.60, 0.46, -4.84, 2.27, 1.51, 6.91, repro,
2009-05-22,-0.01, 0.41, -3.43, 2.29, 1.52, 7.02, repro,
2009-05-23,0.04, -0.79, -7.57, 2.29, 1.53, 7.04, repro,
2009-05-24,-0.53, -0.86, -7.88, 2.27, 1.53, 7.03, repro,
2009-05-25,-0.89, -1.12, -6.19, 2.27, 1.53, 6.98, repro,
2009-05-26,-1.35, -0.77, -2.36, 2.27, 1.51, 6.93, repro,
2009-05-27,-0.63, -0.96, -2.91, 2.26, 1.52, 6.96, repro,
2009-05-28,0.25, -0.49, 5.97, 2.28, 1.52, 7.01, repro,
2009-05-29,-1.42, 0.31, 6.57, 2.31, 1.56, 7.22, repro,
2009-05-30,0.85, -0.50, 1.03, 2.25, 1.52, 7.01, repro,
2009-05-31,0.37, 0.34, -1.74, 2.27, 1.52, 7.03, repro,
2009-06-01,-0.80, 0.71, 2.33, 2.25, 1.51, 6.95, repro,
2009-06-02,-0.78, 0.62, 1.04, 2.26, 1.51, 6.99, repro,
2009-06-03,0.52, 0.62, -4.19, 2.28, 1.52, 7.04, repro,
2009-06-04,0.86, -0.33, 0.60, 2.27, 1.53, 7.04, repro,
2009-06-05,0.83, -0.27, 5.51, 2.26, 1.52, 7.02, repro,
2009-06-06,-0.24, 0.88, 6.57, 2.31, 1.53, 7.09, repro,
2009-06-07,1.05, 0.18, 0.27, 2.26, 1.51, 6.97, repro,
2009-06-08,1.07, -0.77, 2.69, 2.27, 1.51, 6.99, repro,
2009-06-09,0.45, -0.54, 1.84, 2.28, 1.53, 7.02, repro,
2009-06-10,-0.51, -0.13, 0.57, 2.29, 1.53, 7.04, repro,
2009-06-11,1.16, 0.09, 3.97, 2.27, 1.52, 6.99, repro,
2009-06-12,-0.29, -0.30, 0.92, 2.27, 1.51, 6.95, repro,
2009-06-13,0.18, -0.07, 7.54, 2.26, 1.52, 6.98, repro,
2009-06-14,1.19, -0.86, 1.71, 2.30, 1.57, 7.12, repro,
2009-06-15,0.91, -0.92, 3.73, 2.28, 1.53, 7.03, repro,
2009-06-16,0.96, -0.04, 2.14, 2.27, 1.53, 6.98, repro,
2009-06-17,-0.21, -0.91, 3.97, 2.26, 1.53, 6.97, repro,
2009-06-18,1.77, -0.98, 5.45, 2.27, 1.51, 6.94, repro,
2009-06-19,1.39, -0.67, 8.40, 2.26, 1.52, 6.97, repro,
2009-06-20,0.61, -1.33, 8.11, 2.27, 1.53, 7.00, repro,
2009-06-21,1.74, -0.88, 9.92, 2.26, 1.52, 6.95, repro,
2009-06-22,0.33, -1.15, 8.25, 2.26, 1.53, 6.99, repro,
2009-06-23,-0.30, -0.26, 8.72, 2.25, 1.52, 6.94, repro,
2009-06-24,0.12, -0.08, 6.14, 2.33, 1.53, 7.05, repro,
2009-06-25,-0.77, -1.64, 10.11, 2.28, 1.53, 7.02, repro,
2009-06-26,0.60, -1.49, 3.86, 2.28, 1.55, 7.06, repro,
2009-06-27,0.99, -1.59, 2.60, 2.28, 1.55, 7.07, repro,
2009-06-28,0.70, -1.55, 1.65, 2.27, 1.54, 7.04, repro,
2009-06-29,-1.07, -1.64, 8.42, 2.28, 1.54, 7.06, repro,
2009-06-30,1.07, -2.04, 6.01, 2.28, 1.55, 7.08, repro,
2009-07-01,1.48, -1.08, 7.64, 2.29, 1.56, 7.11, repro,
2009-07-02,2.23, -1.30, 7.93, 2.27, 1.53, 6.98, repro,
2009-07-03,2.95, -1.93, 5.25, 2.26, 1.53, 6.96, repro,
2009-07-04,0.68, -1.68, 2.92, 2.27, 1.53, 6.99, repro,
2009-07-05,1.50, -1.17, 5.23, 2.25, 1.52, 6.95, repro,
2009-07-06,0.91, -2.55, 2.64, 2.27, 1.53, 6.97, repro,
2009-07-07,-0.63, -1.11, 11.37, 2.26, 1.53, 6.96, repro,
2009-07-08,0.99, -1.40, 12.72, 2.27, 1.53, 6.99, repro,
2009-07-09,1.20, -1.09, 6.66, 2.25, 1.52, 6.91, repro,
2009-07-10,1.64, -0.65, 7.09, 2.26, 1.54, 6.97, repro,
2009-07-11,1.03, 0.54, 8.24, 2.27, 1.53, 6.98, repro,
2009-07-12,1.24, -1.40, 8.77, 2.28, 1.55, 7.03, repro,
2009-07-13,0.84, -1.01, 3.03, 2.27, 1.55, 7.04, repro,
2009-07-14,1.63, -1.08, 11.01, 2.25, 1.53, 6.96, repro,
2009-07-15,0.48, -0.92, 16.39, 2.24, 1.52, 6.89, repro,
2009-07-16,-0.74, -1.39, 9.84, 2.26, 1.53, 6.98, repro,
2009-07-17,1.01, -1.92, 12.04, 2.25, 1.53, 6.94, repro,
2009-07-18,2.16, -2.35, 16.57, 2.26, 1.53, 6.96, repro,
2009-07-19,1.03, -1.81, 6.21, 2.26, 1.54, 7.00, repro,
2009-07-20,0.46, -1.08, 6.13, 2.24, 1.52, 6.91, repro,
2009-07-21,1.68, -1.32, 13.97, 2.25, 1.53, 6.94, repro,
2009-07-22,-0.35, -1.47, 15.07, 2.26, 1.52, 6.92, repro,
2009-07-23,1.65, -0.41, 13.07, 2.26, 1.53, 6.95, repro,
2009-07-24,0.16, -0.69, 11.43, 2.27, 1.57, 7.17, repro,
2009-07-25,1.07, -0.48, 12.74, 2.35, 1.58, 7.30, repro,
2009-07-26,0.27, -0.65, 5.76, 2.30, 1.54, 7.11, repro,
2009-07-27,1.09, -0.66, -2.71, 2.36, 1.56, 7.18, repro,
2009-07-28,1.41, -1.17, 9.31, 2.28, 1.53, 7.02, repro,
2009-07-29,1.96, -2.70, 2.03, 2.29, 1.58, 7.15, repro,
2009-07-30,-3.54, -2.71, 22.44, 2.54, 1.65, 7.74, repro,
2009-07-31,0.27, -1.07, 7.15, 2.27, 1.53, 7.01, repro,
2009-08-01,2.13, -2.63, 19.60, 2.27, 1.54, 7.01, repro,
2009-08-02,1.61, -2.02, 10.50, 2.44, 1.62, 7.39, repro,
2009-08-03,-0.45, -1.15, -0.26, 2.27, 1.54, 7.01, repro,
2009-08-04,0.49, -1.57, 9.89, 2.28, 1.54, 7.02, repro,
2009-08-05,0.48, -2.22, 8.11, 2.31, 1.55, 7.10, repro,
2009-08-06,2.10, -1.59, 9.84, 2.27, 1.53, 6.96, repro,
2009-08-07,0.38, -2.08, 14.04, 2.29, 1.55, 7.03, repro,
2009-08-08,-0.86, -1.77, 8.35, 2.28, 1.54, 7.01, repro,
2009-08-09,0.82, -1.98, 9.76, 2.28, 1.54, 7.03, repro,
2009-08-10,0.23, -1.98, 7.66, 2.27, 1.53, 6.94, repro,
2009-08-11,-0.34, -2.62, 13.29, 2.27, 1.53, 6.95, repro,
2009-08-12,-0.81, -2.80, 13.67, 2.28, 1.54, 7.00, repro,
2009-08-13,1.61, -2.29, 4.91, 2.29, 1.54, 7.02, repro,
2009-08-14,0.53, -2.44, 8.80, 2.28, 1.55, 7.01, repro,
2009-08-15,1.63, -2.55, 13.01, 2.29, 1.54, 6.98, repro,